EW9507 Weather Reports


Display with metric or nautical units.
time (UTC)temp
F
wind
direction
speed
MPH
gust
MPH
rain 1hr
in
rain 24hr
in
rain mn
in
humidity
%
barometer
mb
20260506001512 40 351 15.0 26.0 0.00 0.00 0.00 43 1014.4
20260506000007 41 6 16.0 26.0 0.00 0.00 0.00 39 1014.2
20260505234507 41 11 17.0 27.0 0.00 0.00 0.00 37 1013.9
20260505233004 41 4 18.0 24.0 0.00 0.00 0.00 37 1013.5
20260505231504 42 4 15.0 23.0 0.00 0.00 0.00 37 1013.5
20260505230002 41 358 11.0 23.0 0.00 0.00 0.00 37 1013.4
20260505224501 42 359 18.0 23.0 0.00 0.00 0.00 35 1013.3
20260505223102 43 11 11.0 29.0 0.00 0.00 0.00 36 1013.2
20260505221604 42 329 8.0 24.0 0.00 0.00 0.00 35 1013.3
20260505220057 42 352 11.0 23.0 0.00 0.00 0.00 35 1013.3
20260505214604 42 343 10.0 22.0 0.00 0.00 0.00 34 1013.3
20260505213059 41 9 9.0 22.0 0.00 0.00 0.00 34 1013.2
20260505211555 42 349 12.0 26.0 0.00 0.00 0.00 35 1013.3
20260505210052 42 352 15.0 24.0 0.00 0.00 0.00 34 1013.2
20260505204551 43 318 13.0 20.0 0.00 0.00 0.00 34 1013.3
20260505203051 42 333 13.0 24.0 0.00 0.00 0.00 35 1013.3
20260505201550 42 27 15.0 23.0 0.00 0.00 0.00 37 1013.2
20260505200015 42 341 12.0 22.0 0.00 0.00 0.00 37 1013.2
20260505194514 42 352 14.0 22.0 0.00 0.00 0.00 38 1013.4
20260505193010 42 338 11.0 21.0 0.00 0.00 0.00 38 1013.2
20260505191511 41 339 13.0 20.0 0.00 0.00 0.00 40 1013.3
20260505190008 41 325 12.0 27.0 0.00 0.00 0.00 41 1013.4
20260505184514 41 8 14.0 23.0 0.00 0.00 0.00 42 1013.3
20260505183007 40 338 11.0 30.0 0.00 0.00 0.00 43 1013.4
20260505181504 40 334 11.0 22.0 0.00 0.00 0.00 42 1013.5
20260505180008 41 14 17.0 28.0 0.00 0.00 0.00 40 1013.5
20260505180006 41 354 17.0 28.0 0.00 0.00 0.00 40 1013.5
20260505174502 41 296 14.0 26.0 0.00 0.00 0.00 41 1013.4
20260505173001 40 338 13.0 30.0 0.00 0.00 0.00 43 1013.5
20260505171559 40 338 15.0 25.0 0.00 0.00 0.00 45 1013.6
20260505170057 40 347 15.0 25.0 0.00 0.00 0.00 44 1013.6
20260505164557 39 359 17.0 30.0 0.00 0.00 0.00 46 1013.5
20260505163056 39 3 20.0 28.0 0.00 0.00 0.00 47 1013.4
20260505161551 38 9 12.0 25.0 0.00 0.00 0.00 49 1013.3
20260505153101 38 358 16.0 21.0 0.00 0.00 0.00 50 1013.8
20260505151543 37 4 10.0 18.0 0.00 0.00 0.00 55 1013.8
20260505124550 31 324 3.0 4.0 0.00 0.00 0.00 85 1013.0
20260505123056 31 84 2.0 3.0 0.00 0.00 0.00 87 1012.7
20260505121544 30 1 1.0 3.0 0.00 0.00 0.00 86 1012.4
20260505120051 31 15 1.0 4.0 0.00 0.00 0.00 87 1012.2
20260505114534 30 314 2.0 3.0 0.00 0.00 0.00 87 1011.9
20260505113031 30 295 1.0 2.0 0.00 0.00 0.00 86 1011.7
20260505111532 30 41 1.0 3.0 0.00 0.00 0.00 85 1011.5
20260505101512 32 295 3.0 5.0 0.00 0.00 0.00 82 1011.2
20260505100004 34 290 2.0 4.0 0.00 0.00 0.00 80 1011.4
20260505094529 35 317 2.0 4.0 0.00 0.00 0.00 80 1011.4
20260505093023 36 314 3.0 8.0 0.00 0.00 0.00 79 1011.5
20260505091519 37 323 3.0 9.0 0.00 0.00 0.00 78 1011.4
20260505090016 37 342 3.0 7.0 0.00 0.00 0.00 78 1011.4
20260505084514 37 351 4.0 10.0 0.00 0.00 0.00 78 1011.4
20260505083018 38 13 9.0 16.0 0.00 0.00 0.00 76 1011.5
20260505081501 38 354 13.0 22.0 0.00 0.00 0.00 72 1011.6
20260505074547 40 351 11.0 19.0 0.00 0.00 0.00 66 1011.4
20260505073051 41 6 13.0 18.0 0.00 0.00 0.00 61 1011.4
20260505071544 41 310 5.0 9.0 0.00 0.00 0.00 64 1011.0
20260505070040 41 299 4.0 7.0 0.00 0.00 0.00 63 1011.0
20260505064526 41 285 3.0 5.0 0.00 0.00 0.00 61 1011.0
20260505063032 41 308 3.0 6.0 0.00 0.00 0.00 60 1011.0
20260505061528 41 330 3.0 7.0 0.00 0.00 0.00 60 1011.1
20260505060020 41 310 4.0 6.0 0.00 0.00 0.00 60 1010.9
20260505054510 41 338 4.0 8.0 0.00 0.00 0.00 61 1010.9
20260505053006 41 325 4.0 6.0 0.00 0.00 0.00 60 1011.0
20260505051506 42 320 5.0 7.0 0.00 0.00 0.00 59 1011.3
20260505041541 42 321 3.0 7.0 0.00 0.00 0.00 56 1011.1
20260505040030 43 322 5.0 7.0 0.00 0.00 0.00 55 1011.1
20260505034528 43 330 4.0 7.0 0.00 0.00 0.00 54 1011.1
20260505033023 43 312 4.0 5.0 0.00 0.00 0.00 53 1011.0
20260505031520 44 319 3.0 5.0 0.00 0.00 0.00 52 1010.8
20260505030016 44 344 3.0 7.0 0.00 0.00 0.00 51 1010.4
20260505024513 44 354 3.0 12.0 0.00 0.00 0.00 50 1010.3
20260505023041 44 9 6.0 13.0 0.00 0.00 0.00 49 1010.2
20260505021539 45 356 8.0 11.0 0.00 0.00 0.00 49 1010.0
20260505020004 45 9 6.0 15.0 0.00 0.00 0.00 52 1009.7
20260505014504 45 3 10.0 18.0 0.00 0.00 0.00 52 1009.6
20260505013058 45 342 8.0 18.0 0.00 0.00 0.00 52 1009.4
20260505011655 45 6 14.0 21.0 0.00 0.00 0.00 52 1009.3
20260505010100 45 4 15.0 20.0 0.00 0.00 0.00 51 1009.2
20260505004554 45 13 8.0 14.0 0.00 0.00 0.00 53 1009.1
20260505003056 45 341 9.0 16.0 0.00 0.00 0.00 56 1008.9